Home   Weather   Pirmasens   Past weeks

Flag for Germany Past Weather in Pirmasens, Rhineland-Palatinate, Germany — Yesterday and Last 2 Weeks

Now
44 °F

Passing clouds.


Feels Like: 44 °F
Forecast: 37 / 48 °F
Wind: No wind

Location: Ramstein

Current Time: Apr 27, 2017 at 1:52:18 am

Latest Report: Apr 27, 2017 at 12:58 am


Visibility: N/A

Pressure: 29.94 "Hg

Humidity: 55%

Dew Point: 29 °F

Location of PirmasensLocation

Past Weather in Pirmasens — Graph

°F

Pirmasens Temperature Yesterday

Maximum temperature yesterday: 50 °F (at 1:58 pm)
Minimum temperature yesterday: 39 °F (at 6:58 am)
Average temperature yesterday: 45 °F

High & Low Weather Summary for the Past Weeks

 TemperatureHumidityPressure
High66 °F (Apr 12, 4:58 pm)100% (Apr 12, 1:58 am)30.63 "Hg (Apr 12, 1:58 am)
Low18 °F (Apr 20, 5:58 am)26% (Apr 24, 5:58 pm)29.72 "Hg (Apr 25, 5:23 am)
Average45 °F68%30.14 "Hg
* Reported Apr 11 11:58 pm — Apr 26 11:58 pm, Pirmasens, Weather by CustomWeather, © 2017

Note: Actual official high and low records may vary slightly from our data, if they occured in-between our weather recording intervals... More about our weather records

Advertising

Pirmasens Weather History for the Previous 24 Hours

Scroll right to see more
 ConditionsComfort  
Time TempWeatherWind HumidityBarometerVisibility
11:58 pm
Wed, Apr 26
45 °FPassing clouds.No wind51%29.94 "HgN/A
10:58 pm45 °FPassing clouds.6 mph56%29.94 "HgN/A
9:58 pm46 °FPassing clouds.6 mph48%29.93 "HgN/A
8:58 pm46 °FOvercast.3 mph46%29.90 "HgN/A
7:58 pm48 °FOvercast.3 mph41%29.88 "HgN/A
6:58 pm49 °FPassing clouds.5 mph40%29.88 "HgN/A
5:58 pm50 °FMostly cloudy.3 mph40%29.88 "HgN/A
4:58 pm50 °FMostly cloudy.5 mph43%29.89 "HgN/A
3:58 pm50 °FPartly sunny.No wind40%29.88 "HgN/A
2:58 pm49 °FPartly sunny.7 mph43%29.88 "HgN/A
1:58 pm50 °FOvercast.3 mph39%29.87 "HgN/A
12:58 pm49 °FPartly sunny.5 mph44%29.87 "HgN/A
11:58 am48 °FMostly cloudy.7 mph46%29.88 "HgN/A
11:36 am46 °FMostly cloudy.6 mph53%29.85 "HgN/A
10:58 am45 °FMostly cloudy.9 mph53%29.87 "HgN/A
9:58 am43 °FOvercast.7 mph60%29.88 "HgN/A
8:58 am42 °FOvercast.7 mph65%29.87 "HgN/A
7:58 am40 °FOvercast.8 mph72%29.87 "HgN/A
6:58 am39 °FOvercast.No wind84%29.85 "HgN/A
5:58 am39 °FOvercast.No wind82%29.83 "HgN/A
4:58 am41 °FPassing clouds.No wind76%29.83 "HgN/A
3:58 am41 °FPassing clouds.No wind71%29.83 "HgN/A
2:58 am41 °FPassing clouds.7 mph71%29.83 "HgN/A
1:58 am42 °FPassing clouds.8 mph65%29.83 "HgN/A
Weather by CustomWeather, © 2017

See weather overviewHow to use our weather pages